Flag for Germany Weather past 2 weeks in Leutkirch im Allgäu, Baden-Württemberg, Germany

Now
59 °F

Overcast.


Feels Like: 59 °F
Forecast: 47 / 62 °F
Wind: 2 mph from East

Location: Kempten

Current Time: Sep 2, 2015 at 7:52:10 PM

Latest Report: Sep 2, 2015 at 7:00 PM


Visibility: 9 mi

Pressure: 29.99 "Hg (27.74 "Hg at 656m altitude)

Humidity: 82%

Dew point: 53 °F

Location of Leutkirch im AllgäuLocation

Historic Weather in Leutkirch im Allgäu — Graph

°F

Leutkirch im Allgäu temperature yesterday

Maximum temperature yesterday: 79 °F (at 12:00 PM)
Minimum temperature yesterday: 59 °F (at 11:00 PM)
Average temperature yesterday: 66 °F

Past Weeks' High & Low Weather Summary

 TemperatureHumidityPressure
High88 °F (Aug 30, 6:00 PM)100% (Aug 20, 6:00 AM)30.31 "Hg (Aug 20, 6:00 AM)
Low45 °F (Aug 21, 6:00 AM)28% (Aug 30, 2:00 PM)29.66 "Hg (Aug 24, 2:00 PM)
Average64 °F73%30.02 "Hg
* Reported Aug 18 7:00 PM — Sep 2 7:00 PM, Leutkirch im Allgäu, Weather by CustomWeather, © 2015

Note: Actual official high and low records may vary slightly from our data, if they occured in-between our weather recording intervals... More about our weather records

Advertising

Leutkirch im Allgäu weather history for previous 24 hours

 ConditionsComfort  
Time TempWeatherWind HumidityBarometerVisibility
7:00 PM
Wed, Sep 2
59 °FOvercast.2 mph82%29.99 "Hg9 mi
6:00 PM59 °FOvercast.2 mph80%29.98 "Hg9 mi
4:00 PM59 °FOvercast.2 mph84%29.98 "Hg7 mi
3:00 PM59 °FOvercast.2 mph86%29.98 "Hg10 mi
2:00 PM59 °FOvercast.2 mph81%29.99 "Hg10 mi
1:00 PM58 °FDrizzle. Overcast.1 mph82%30.01 "Hg7 mi
12:00 PM57 °FLight rain. Overcast.2 mph88%30.03 "Hg3 mi
11:00 AM56 °FLight rain. Overcast.2 mph90%30.03 "Hg3 mi
10:00 AM55 °FRain. Overcast.1 mph96%30.03 "Hg2 mi
9:00 AM55 °FLight rain. Low clouds.1 mph94%30.04 "Hg2 mi
8:00 AM55 °FLight freezing rain. Overcast.1 mph95%30.04 "Hg3 mi
7:00 AM55 °FLight rain. Overcast.No wind97%30.04 "Hg2 mi
4:00 AM56 °FLight freezing rain. Low clouds.1 mph97%30.06 "Hg3 mi
3:00 AM56 °FLight freezing rain. Low clouds.1 mph97%30.06 "Hg2 mi
2:00 AM56 °FLight freezing rain. Low clouds.2 mph97%30.06 "Hg2 mi
1:00 AM57 °FLight freezing rain. Low clouds.2 mph97%30.05 "Hg2 mi
11:00 PM
Tue, Sep 1
59 °FLight freezing rain. Overcast.1 mph95%30.02 "Hg9 mi
10:00 PM59 °FLight rain. Overcast.2 mph92%30.02 "Hg10 mi
9:00 PM60 °FLight freezing rain. Overcast.3 mph91%29.99 "Hg9 mi
8:00 PM61 °FDrizzle. Overcast.3 mph88%29.94 "Hg17 mi
7:00 PM61 °FOvercast.3 mph90%29.94 "Hg15 mi
Weather by CustomWeather, © 2015

See weather overviewHow to use our weather pages